Location: Unspecified
(0.0000°N, 0.0000°E)
Time: 14:54:56
(UTC+00:00)

Envisat - Pass Details

Date: 29 November 2020
Orbit: 764 x 766 km, 98.1° (Epoch: 28 November)

Event Time Altitude Azimuth Distance (km) Brightness Sun altitude
Rises 05:05:18 0° 24° (NNE) 3,214 6.3 -10.0°
Reaches altitude 10° 05:07:41 10° 30° (NNE) 2,291 5.6 -9.5°
Maximum altitude 05:12:29 45° 102° (ESE) 1,036 4.3 -8.3°
Drops below altitude 10° 05:17:19 10° 174° (S) 2,302 5.9 -7.2°
Sets 05:19:42 0° 180° (S) 3,230 6.5 -6.7°
